Time,TemperatureF,DewpointF,PressureIn,WindDirection,WindDirectionDegrees,WindSpeedMPH,WindSpeedGustMPH,Humidity,HourlyPrecipIn,Conditions,Clouds,dailyrainin,SolarRadiationWatts/m^2,SoftwareType,DateUTC
2013-02-07 00:02:00,22.0,18.0,-100.00,NE,46,6.0,10.0,85,0.00,,,-99.99,0.000000,,2013-02-07 06:02:00,
2013-02-07 00:32:00,22.0,20.0,-100.00,NE,42,6.0,11.0,90,0.00,,,0.09,0.000000,,2013-02-07 06:32:00,
2013-02-07 00:43:00,22.0,20.0,-100.00,NE,42,6.0,11.0,90,0.00,,,0.09,0.000000,,2013-02-07 06:43:00,
2013-02-07 00:52:00,22.0,20.0,-100.00,NE,42,6.0,11.0,90,0.00,,,0.09,0.000000,,2013-02-07 06:52:00,
2013-02-07 01:01:00,22.0,20.0,-100.00,NE,42,6.0,11.0,90,0.00,,,0.09,0.000000,,2013-02-07 07:01:00,
2013-02-07 01:32:00,22.0,20.0,-100.00,NE,41,6.0,11.0,93,0.00,,,0.09,0.000000,,2013-02-07 07:32:00,
2013-02-07 01:42:00,22.0,20.0,-100.00,NE,41,6.0,11.0,93,0.00,,,0.09,0.000000,,2013-02-07 07:42:00,
2013-02-07 01:52:00,22.0,20.0,-100.00,NE,41,6.0,11.0,93,0.00,,,0.09,0.000000,,2013-02-07 07:52:00,
2013-02-07 02:01:00,22.0,20.0,-100.00,NE,41,6.0,11.0,93,0.00,,,0.09,0.000000,,2013-02-07 08:01:00,
2013-02-07 02:32:00,22.0,20.0,-100.00,NE,34,6.0,10.0,92,0.00,,,0.09,0.000000,,2013-02-07 08:32:00,
2013-02-07 02:42:00,22.0,20.0,-100.00,NE,34,6.0,10.0,92,0.00,,,0.09,0.000000,,2013-02-07 08:42:00,
2013-02-07 02:52:00,22.0,20.0,-100.00,NE,34,6.0,10.0,92,0.00,,,0.09,0.000000,,2013-02-07 08:52:00,
2013-02-07 03:02:00,22.0,20.0,-100.00,NE,34,6.0,10.0,92,0.00,,,0.09,0.000000,,2013-02-07 09:02:00,
2013-02-07 03:32:00,22.0,20.0,-100.00,NE,40,7.0,12.0,93,0.00,,,0.09,0.000000,,2013-02-07 09:32:00,
2013-02-07 03:42:00,22.0,20.0,-100.00,NE,40,7.0,12.0,93,0.00,,,0.09,0.000000,,2013-02-07 09:42:00,
2013-02-07 03:52:00,22.0,20.0,-100.00,NE,40,7.0,12.0,93,0.00,,,0.09,0.000000,,2013-02-07 09:52:00,
2013-02-07 04:01:00,22.0,20.0,-100.00,NE,40,7.0,12.0,93,0.00,,,0.09,0.000000,,2013-02-07 10:01:00,
2013-02-07 04:32:00,22.0,20.0,-100.00,NE,42,5.0,11.0,91,0.00,,,0.09,0.000000,,2013-02-07 10:32:00,
2013-02-07 04:42:00,22.0,20.0,-100.00,NE,42,5.0,11.0,91,0.00,,,0.09,0.000000,,2013-02-07 10:42:00,
2013-02-07 04:52:00,22.0,20.0,-100.00,NE,42,5.0,11.0,91,0.00,,,0.09,0.000000,,2013-02-07 10:52:00,
2013-02-07 05:01:00,22.0,20.0,-100.00,NE,42,5.0,11.0,91,0.00,,,0.09,0.000000,,2013-02-07 11:01:00,
2013-02-07 05:32:00,22.0,20.0,-100.00,NE,37,6.0,11.0,91,0.00,,,0.09,0.000000,,2013-02-07 11:32:00,
2013-02-07 05:44:00,22.0,20.0,-100.00,NE,37,6.0,11.0,91,0.00,,,0.09,0.000000,,2013-02-07 11:44:00,
2013-02-07 05:53:00,22.0,20.0,-100.00,NE,37,6.0,11.0,91,0.00,,,0.09,0.000000,,2013-02-07 11:53:00,
2013-02-07 06:02:00,22.0,20.0,-100.00,NE,37,6.0,11.0,91,0.00,,,0.09,0.000000,,2013-02-07 12:02:00,
2013-02-07 06:33:00,22.0,20.0,-100.00,NE,34,6.0,11.0,91,0.00,,,0.09,0.000000,,2013-02-07 12:33:00,
2013-02-07 06:42:00,22.0,20.0,-100.00,NE,34,6.0,11.0,91,0.00,,,0.09,0.000000,,2013-02-07 12:42:00,
2013-02-07 06:53:00,22.0,20.0,-100.00,NE,34,6.0,11.0,91,0.00,,,0.09,0.000000,,2013-02-07 12:53:00,
2013-02-07 07:03:00,22.0,20.0,-100.00,NE,34,6.0,11.0,91,0.00,,,0.09,0.000000,,2013-02-07 13:03:00,
2013-02-07 07:32:00,22.0,19.0,-100.00,NE,42,7.0,13.0,89,0.00,,,0.09,0.000000,,2013-02-07 13:32:00,
2013-02-07 07:42:00,22.0,19.0,-100.00,NE,42,7.0,13.0,89,0.00,,,0.09,0.000000,,2013-02-07 13:42:00,
2013-02-07 07:52:00,22.0,19.0,-100.00,NE,42,7.0,13.0,89,0.00,,,0.09,0.000000,,2013-02-07 13:52:00,
2013-02-07 08:01:00,22.0,19.0,-100.00,NE,42,7.0,13.0,89,0.00,,,0.09,0.000000,,2013-02-07 14:01:00,
2013-02-07 08:32:00,23.0,20.0,-100.00,NE,40,7.0,15.0,89,0.00,,,-99.99,3.000000,,2013-02-07 14:32:00,
2013-02-07 08:42:00,23.0,20.0,-100.00,NE,40,7.0,15.0,89,0.00,,,-99.99,3.000000,,2013-02-07 14:42:00,
2013-02-07 08:52:00,23.0,20.0,-100.00,NE,40,7.0,15.0,89,0.00,,,-99.99,3.000000,,2013-02-07 14:52:00,
2013-02-07 09:02:00,23.0,20.0,-100.00,NE,40,7.0,15.0,89,0.00,,,-99.99,3.000000,,2013-02-07 15:02:00,
2013-02-07 09:32:00,23.0,20.0,-100.00,NE,39,9.0,14.0,88,0.00,,,0.09,14.000000,,2013-02-07 15:32:00,
2013-02-07 09:42:00,23.0,20.0,-100.00,NE,39,9.0,14.0,88,0.00,,,0.09,14.000000,,2013-02-07 15:42:00,
2013-02-07 09:52:00,23.0,20.0,-100.00,NE,39,9.0,14.0,88,0.00,,,0.09,14.000000,,2013-02-07 15:52:00,
2013-02-07 10:01:00,23.0,20.0,-100.00,NE,39,9.0,14.0,88,0.00,,,0.09,14.000000,,2013-02-07 16:01:00,
2013-02-07 10:32:00,24.0,20.0,-100.00,NE,46,8.0,15.0,86,0.00,,,0.09,45.000000,,2013-02-07 16:32:00,
2013-02-07 10:42:00,24.0,20.0,-100.00,NE,46,8.0,15.0,86,0.00,,,0.09,45.000000,,2013-02-07 16:42:00,
2013-02-07 10:52:00,24.0,20.0,-100.00,NE,46,8.0,15.0,86,0.00,,,0.09,45.000000,,2013-02-07 16:52:00,
2013-02-07 11:01:00,24.0,20.0,-100.00,NE,46,8.0,15.0,86,0.00,,,0.09,45.000000,,2013-02-07 17:01:00,
2013-02-07 11:32:00,25.0,21.0,-100.00,NNE,31,7.0,14.0,84,0.00,,,0.09,47.000000,,2013-02-07 17:32:00,
2013-02-07 11:43:00,25.0,21.0,-100.00,NNE,31,7.0,14.0,84,0.00,,,0.09,47.000000,,2013-02-07 17:43:00,
2013-02-07 11:52:00,25.0,21.0,-100.00,NNE,31,7.0,14.0,84,0.00,,,0.09,47.000000,,2013-02-07 17:52:00,
2013-02-07 12:01:00,25.0,21.0,-100.00,NNE,31,7.0,14.0,84,0.00,,,0.09,47.000000,,2013-02-07 18:01:00,
2013-02-07 12:32:00,26.0,19.0,-100.00,NNE,25,7.0,16.0,76,0.00,,,0.07,82.000000,,2013-02-07 18:32:00,
2013-02-07 12:42:00,26.0,19.0,-100.00,NNE,25,7.0,16.0,76,0.00,,,0.07,82.000000,,2013-02-07 18:42:00,
2013-02-07 12:52:00,26.0,19.0,-100.00,NNE,25,7.0,16.0,76,0.00,,,0.07,82.000000,,2013-02-07 18:52:00,
2013-02-07 13:01:00,26.0,19.0,-100.00,NNE,25,7.0,16.0,76,0.00,,,0.07,82.000000,,2013-02-07 19:01:00,
2013-02-07 13:32:00,27.0,19.0,-100.00,NNE,30,9.0,15.0,71,0.00,,,0.03,104.000000,,2013-02-07 19:32:00,
2013-02-07 13:42:00,27.0,19.0,-100.00,NNE,30,9.0,15.0,71,0.00,,,0.03,104.000000,,2013-02-07 19:42:00,
2013-02-07 13:52:00,27.0,19.0,-100.00,NNE,30,9.0,15.0,71,0.00,,,0.03,104.000000,,2013-02-07 19:52:00,
2013-02-07 14:01:00,27.0,19.0,-100.00,NNE,30,9.0,15.0,71,0.00,,,0.03,104.000000,,2013-02-07 20:01:00,
2013-02-07 14:32:00,28.0,19.0,-100.00,NNE,28,9.0,18.0,68,0.00,,,0.02,130.000000,,2013-02-07 20:32:00,
2013-02-07 14:42:00,28.0,19.0,-100.00,NNE,28,9.0,18.0,68,0.00,,,0.02,130.000000,,2013-02-07 20:42:00,
2013-02-07 14:52:00,28.0,19.0,-100.00,NNE,28,9.0,18.0,68,0.00,,,0.02,130.000000,,2013-02-07 20:52:00,
2013-02-07 15:02:00,28.0,19.0,-100.00,NNE,28,9.0,18.0,68,0.00,,,0.02,130.000000,,2013-02-07 21:02:00,
2013-02-07 15:32:00,28.0,19.0,-100.00,NNE,33,10.0,17.0,69,0.00,,,0.00,107.000000,,2013-02-07 21:32:00,
2013-02-07 15:42:00,28.0,19.0,-100.00,NNE,33,10.0,17.0,69,0.00,,,0.00,107.000000,,2013-02-07 21:42:00,
2013-02-07 15:52:00,28.0,19.0,-100.00,NNE,33,10.0,17.0,69,0.00,,,0.00,107.000000,,2013-02-07 21:52:00,
2013-02-07 16:02:00,28.0,19.0,-100.00,NNE,33,10.0,17.0,69,0.00,,,0.00,107.000000,,2013-02-07 22:02:00,
2013-02-07 16:32:00,28.0,19.0,-100.00,NE,36,9.0,17.0,69,0.00,,,0.00,82.000000,,2013-02-07 22:32:00,
2013-02-07 16:42:00,28.0,19.0,-100.00,NE,36,9.0,17.0,69,0.00,,,0.00,82.000000,,2013-02-07 22:42:00,
2013-02-07 16:52:00,28.0,19.0,-100.00,NE,36,9.0,17.0,69,0.00,,,0.00,82.000000,,2013-02-07 22:52:00,
2013-02-07 17:01:00,28.0,19.0,-100.00,NE,36,9.0,17.0,69,0.00,,,0.00,82.000000,,2013-02-07 23:01:00,
2013-02-07 17:32:00,27.0,19.0,-100.00,NNE,28,9.0,14.0,70,0.00,,,0.00,22.000000,,2013-02-07 23:32:00,
2013-02-07 17:42:00,27.0,19.0,-100.00,NNE,28,9.0,14.0,70,0.00,,,0.00,22.000000,,2013-02-07 23:42:00,
2013-02-07 17:52:00,27.0,19.0,-100.00,NNE,28,9.0,14.0,70,0.00,,,0.00,22.000000,,2013-02-07 23:52:00,
2013-02-07 18:01:00,27.0,19.0,-100.00,NNE,28,9.0,14.0,70,0.00,,,0.00,22.000000,,2013-02-08 00:01:00,
2013-02-07 20:32:00,25.0,21.0,-100.00,North,4,6.0,12.0,84,-99.99,,,0.00,0.000000,,2013-02-08 02:32:00,
2013-02-07 20:42:00,25.0,21.0,-100.00,North,4,6.0,12.0,84,-99.99,,,0.00,0.000000,,2013-02-08 02:42:00,
2013-02-07 20:52:00,25.0,21.0,-100.00,North,4,6.0,12.0,84,-99.99,,,0.00,0.000000,,2013-02-08 02:52:00,
2013-02-07 21:01:00,25.0,21.0,-100.00,North,4,6.0,12.0,84,-99.99,,,0.00,0.000000,,2013-02-08 03:01:00,
2013-02-07 21:32:00,24.0,20.0,-100.00,North,5,5.0,11.0,84,0.00,,,0.00,0.000000,,2013-02-08 03:32:00,
2013-02-07 21:42:00,24.0,20.0,-100.00,North,5,5.0,11.0,84,0.00,,,0.00,0.000000,,2013-02-08 03:42:00,
2013-02-07 21:52:00,24.0,20.0,-100.00,North,5,5.0,11.0,84,0.00,,,0.00,0.000000,,2013-02-08 03:52:00,
2013-02-07 22:01:00,24.0,20.0,-100.00,North,5,5.0,11.0,84,0.00,,,0.00,0.000000,,2013-02-08 04:01:00,
2013-02-07 22:32:00,24.0,19.0,-100.00,NNE,31,5.0,9.0,82,0.00,,,0.00,0.000000,,2013-02-08 04:32:00,
2013-02-07 22:42:00,24.0,19.0,-100.00,NNE,31,5.0,9.0,82,0.00,,,0.00,0.000000,,2013-02-08 04:42:00,
2013-02-07 22:52:00,24.0,19.0,-100.00,NNE,31,5.0,9.0,82,0.00,,,0.00,0.000000,,2013-02-08 04:52:00,
2013-02-07 23:02:00,24.0,19.0,-100.00,NNE,31,5.0,9.0,82,0.00,,,0.00,0.000000,,2013-02-08 05:02:00,
2013-02-07 23:32:00,24.0,16.0,-100.00,NE,36,6.0,15.0,72,0.00,,,0.00,0.000000,,2013-02-08 05:32:00,
2013-02-07 23:42:00,24.0,16.0,-100.00,NE,36,6.0,15.0,72,0.00,,,0.00,0.000000,,2013-02-08 05:42:00,
2013-02-07 23:52:00,24.0,16.0,-100.00,NE,36,6.0,15.0,72,0.00,,,0.00,0.000000,,2013-02-08 05:52:00,